Terminal Aerodrome Forecast
Issued by NWS Charleston, WV

Current Version | Previous Version | Text Only | Print | Product List | Glossary Off
Versions: 1 2 3 4 5 6 7 8 9 10 11 12 13 14 15 16 17 18 19 20 21 22 23 24 25 26

651
FTUS41 KRLX 300546
TAFCRW
TAF
KCRW 300546Z 3006/3106 00000KT 1/4SM FG VV001
     FM301000 00000KT 1SM BR BKN001 BKN100
     FM301200 00000KT 4SM HZ SCT001 BKN080
     FM301330 23002KT P6SM SCT080
     FM301600 27003KT P6SM VCSH BKN040
     FM302000 30003KT P6SM SCT050
     FM310000 VRB02KT P6SM SCT250=

USA.gov is the U.S. government's official web portal to all federal, state and local government web resources and services.